EW5212 Weather Reports


time (UTC)temp
C
wind
direction
speed
KPH
gust
KPH
rain 1hr
cm
rain 24hr
cm
rain mn
cm
humidity
%
barometer
mb
20260903112517 21 0.0 0.0 0.00 0.00 0.00 100 1017.9
20260903111557 21 0.0 0.0 0.00 0.00 0.00 100 1017.9
20260903110517 21 0.0 0.0 0.00 0.00 0.00 100 1017.8
20260903105517 21 0.0 0.0 0.00 0.00 0.00 100 1017.8
20260903104517 21 0.0 0.0 0.00 0.00 0.00 100 1017.7
20260903103517 21 0.0 0.0 0.00 0.00 0.00 100 1017.7
20260903102517 22 0.0 0.0 0.00 0.00 0.00 100 1017.6
20260903101557 22 0.0 0.0 0.00 0.00 0.00 100 1017.6
20260903100517 21 0.0 0.0 0.00 0.00 0.00 100 1017.7
20260903095521 22 0.0 0.0 0.00 0.00 0.00 100 1017.8
20260903094537 22 0.0 0.0 0.00 0.00 0.00 100 1017.7
20260903093537 22 0.0 0.0 0.00 0.00 0.00 100 1017.6
20260903092517 22 0.0 0.0 0.00 0.00 0.00 100 1017.6
20260903091517 22 0.0 0.0 0.00 0.00 0.00 100 1017.6
20260903090517 22 0.0 0.0 0.00 0.00 0.00 100 1017.4
20260903085517 22 0.0 0.0 0.00 0.00 0.00 100 1017.3
20260903084517 22 0.0 0.0 0.00 0.00 0.00 100 1017.1
20260903083517 22 0.0 0.0 0.00 0.00 0.00 100 1017.2
20260903082517 22 0.0 0.0 0.00 0.00 0.00 100 1017.1
20260903081537 22 0.0 0.0 0.00 0.00 0.00 100 1017.1
20260903080517 22 0.0 0.0 0.00 0.00 0.00 100 1017.3
20260903075516 22 0.0 0.0 0.00 0.00 0.00 100 1017.5
20260903074556 22 0.0 0.0 0.00 0.00 0.00 100 1017.5
20260903073517 22 0.0 0.0 0.00 0.00 0.00 100 1017.6
20260903072517 22 0.0 0.0 0.00 0.00 0.00 100 1017.6
20260903071517 23 0.0 0.0 0.00 0.00 0.00 100 1017.5
20260903070517 23 0.0 0.0 0.00 0.00 0.00 100 1017.5
20260903065517 23 0.0 0.0 0.00 0.00 0.00 100 1017.7
20260903064536 23 0.0 0.0 0.00 0.00 0.00 100 1017.8
20260903063517 23 0.0 0.0 0.00 0.00 0.00 100 1017.8
20260903062537 23 0.0 0.0 0.00 0.00 0.00 100 1017.8
20260903061516 23 0.0 1.6 0.00 0.00 0.00 100 1017.8
20260903060537 23 0.0 0.0 0.00 0.00 0.00 100 1017.7
20260903055517 23 0.0 0.0 0.00 0.00 0.00 100 1017.8
20260903054516 23 0.0 0.0 0.00 0.00 0.00 100 1017.9
20260903053517 23 0.0 0.0 0.00 0.00 0.00 100 1018.0
20260903052520 23 0.0 0.0 0.00 0.00 0.00 99 1018.2
20260903051537 23 0.0 0.0 0.00 0.00 0.00 99 1018.3
20260903050516 23 0.0 1.6 0.00 0.00 0.00 99 1018.3
20260903045516 23 0.0 0.0 0.00 0.00 0.00 99 1018.4
20260903044516 23 0.0 1.6 0.00 0.00 0.00 99 1018.2
20260903043517 23 0.0 0.0 0.00 0.00 0.00 99 1018.2
20260903042516 23 0.0 0.0 0.00 0.00 0.00 99 1018.3
20260903041517 23 0.0 0.0 0.00 0.00 0.00 99 1018.0
20260903040517 23 0.0 0.0 0.00 0.00 0.00 99 1017.8
20260903035516 23 0.0 0.0 0.00 0.00 0.00 99 1017.8
20260903034516 23 0.0 0.0 0.00 0.00 0.00 99 1017.8
20260903033517 23 0.0 0.0 0.00 0.00 0.00 98 1017.7
20260903032516 24 0.0 0.0 0.00 0.00 0.00 98 1017.6
20260903031516 24 0.0 0.0 0.00 0.00 0.00 98 1017.6
20260903030516 24 0.0 0.0 0.00 0.00 0.00 98 1017.6
20260903025517 24 0.0 0.0 0.00 0.00 0.00 98 1017.8
20260903024516 24 0.0 0.0 0.00 0.00 0.00 98 1017.7
20260903023516 25 0.0 0.0 0.00 0.00 0.00 98 1017.8
20260903022516 25 0.0 0.0 0.00 0.00 0.00 98 1017.9
20260903021536 25 0.0 0.0 0.00 0.00 0.00 97 1017.9
20260903020516 25 0.0 0.0 0.00 0.00 0.00 97 1018.1
20260903015536 25 0.0 0.0 0.00 0.00 0.00 97 1018.3
20260903014516 25 0.0 0.0 0.00 0.00 0.00 97 1018.4
20260903013516 25 0.0 0.0 0.00 0.00 0.00 97 1018.1
20260903012516 25 0.0 0.0 0.00 0.00 0.00 96 1018.2
20260903011516 25 0.0 0.0 0.00 0.00 0.00 96 1018.2
20260903010516 25 0.0 0.0 0.00 0.00 0.00 96 1018.2
20260903005556 26 0.0 0.0 0.00 0.00 0.00 95 1018.1
20260903004536 26 0.0 0.0 0.00 0.00 0.00 95 1018.1
20260903003516 26 0.0 0.0 0.00 0.00 0.00 94 1017.7
20260903002536 26 0.0 0.0 0.00 0.00 0.00 93 1017.6
20260903001516 27 0.0 0.0 0.00 0.00 0.00 93 1017.6
20260903000536 27 0.0 0.0 0.00 0.00 0.00 92 1017.7
20260902235516 27 0.0 0.0 0.00 0.00 0.00 91 1017.7
20260902234516 27 0.0 0.0 0.00 0.00 0.00 90 1017.5
20260902233516 28 0.0 0.0 0.00 0.00 0.00 89 1017.7
20260902232536 28 0.0 3.2 0.00 0.00 0.00 89 1017.5
20260902231516 28 0.0 0.0 0.00 0.00 0.00 89 1018.1
20260902230516 28 0.0 0.0 0.00 0.00 0.00 88 1018.3
20260902225517 28 0.0 0.0 0.00 0.00 0.00 87 1018.1
20260902224516 28 0.0 4.8 0.00 0.00 0.00 88 1017.7
20260902223516 28 90 1.6 6.4 0.00 0.00 0.00 86 1017.8
20260902222516 28 113 1.6 6.4 0.00 0.00 0.00 85 1018.5
20260902221516 28 0.0 1.6 0.00 0.00 0.00 85 1018.6
20260902220519 29 0.0 3.2 0.00 0.00 0.00 82 1018.1
20260902215516 30 0.0 3.2 0.00 0.00 0.00 81 1018.1
20260902214518 30 0.0 1.6 0.00 0.00 0.00 80 1018.1
20260902213516 31 68 1.6 8.0 0.00 0.00 0.00 77 1018.2
20260902212516 31 338 1.6 6.4 0.00 0.00 0.00 75 1018.0
20260902211516 31 338 1.6 4.8 0.00 0.00 0.00 75 1018.4
20260902210516 32 315 1.6 4.8 0.00 0.00 0.00 75 1017.9
20260902205516 32 293 3.2 6.4 0.00 0.00 0.00 76 1017.8
20260902204516 32 338 3.2 9.7 0.00 0.00 0.00 75 1018.2
20260902203516 33 0 1.6 4.8 0.00 0.00 0.00 72 1018.2
20260902202516 33 0.0 1.6 0.00 0.00 0.00 72 1017.9
20260902201516 33 338 1.6 3.2 0.00 0.00 0.00 71 1018.1
20260902200536 33 45 1.6 4.8 0.00 0.00 0.00 70 1018.2
20260902195516 34 45 1.6 3.2 0.00 0.00 0.00 70 1018.3
20260902194516 35 338 1.6 1.6 0.00 0.00 0.00 69 1017.9
20260902193516 35 0.0 3.2 0.00 0.00 0.00 66 1017.7
20260902192516 34 0.0 3.2 0.00 0.00 0.00 68 1017.8
20260902191516 34 0.0 1.6 0.00 0.00 0.00 68 1017.8
20260902190516 35 0.0 3.2 0.00 0.00 0.00 67 1017.9
20260902185515 34 0.0 4.8 0.00 0.00 0.00 67 1018.0
20260902184516 34 45 1.6 3.2 0.00 0.00 0.00 68 1018.2
20260902183516 35 0.0 1.6 0.00 0.00 0.00 68 1018.4
20260902182515 35 0.0 3.2 0.00 0.00 0.00 67 1018.4
20260902181515 35 0.0 3.2 0.00 0.00 0.00 67 1018.5
20260902180516 35 0.0 3.2 0.00 0.00 0.00 68 1018.6
20260902175516 34 338 1.6 4.8 0.00 0.00 0.00 67 1018.6
20260902174516 35 45 1.6 4.8 0.00 0.00 0.00 67 1018.7
20260902173516 34 338 1.6 3.2 0.00 0.00 0.00 67 1018.6
20260902172536 34 45 1.6 3.2 0.00 0.00 0.00 68 1018.5
20260902171516 34 45 1.6 4.8 0.00 0.00 0.00 67 1018.6
20260902170515 35 45 1.6 3.2 0.00 0.00 0.00 66 1018.6
20260902165515 34 45 1.6 3.2 0.00 0.00 0.00 67 1018.6
20260902164516 34 0.0 3.2 0.00 0.00 0.00 66 1018.7
20260902163516 34 45 1.6 6.4 0.00 0.00 0.00 65 1018.7
20260902162515 34 0.0 1.6 0.00 0.00 0.00 67 1018.7
20260902161536 34 45 1.6 3.2 0.00 0.00 0.00 68 1018.7
20260902160515 34 0.0 1.6 0.00 0.00 0.00 69 1019.0
20260902155515 33 0.0 3.2 0.00 0.00 0.00 70 1019.1
20260902154515 33 45 1.6 4.8 0.00 0.00 0.00 72 1019.1
20260902153515 33 0.0 3.2 0.00 0.00 0.00 70 1019.0
20260902152515 33 0.0 1.6 0.00 0.00 0.00 71 1019.0
20260902151515 32 0.0 1.6 0.00 0.00 0.00 72 1019.1
20260902150515 32 0.0 3.2 0.00 0.00 0.00 72 1019.2
20260902145515 32 0.0 1.6 0.00 0.00 0.00 74 1019.2
20260902144516 31 45 1.6 3.2 0.00 0.00 0.00 75 1019.3
20260902143519 32 0.0 0.0 0.00 0.00 0.00 76 1019.4
20260902142515 31 0.0 0.0 0.00 0.00 0.00 78 1019.3
20260902141515 31 0.0 0.0 0.00 0.00 0.00 75 1019.1
20260902140555 31 0.0 0.0 0.00 0.00 0.00 78 1019.1
20260902135516 31 0.0 0.0 0.00 0.00 0.00 79 1019.0
20260902134535 30 0.0 0.0 0.00 0.00 0.00 81 1018.9
20260902133535 29 0.0 0.0 0.00 0.00 0.00 84 1018.9
20260902132515 28 0.0 0.0 0.00 0.00 0.00 86 1018.8
20260902131515 27 0.0 1.6 0.00 0.00 0.00 88 1018.8
20260902130515 26 0.0 0.0 0.00 0.00 0.00 97 1018.8
20260902125515 24 0.0 0.0 0.00 0.00 0.00 100 1018.7
20260902124517 23 0.0 0.0 0.00 0.00 0.00 100 1018.6
20260902123515 23 0.0 0.0 0.00 0.00 0.00 100 1018.6
20260902122515 23 0.0 0.0 0.00 0.00 0.00 100 1018.5
20260902121515 22 0.0 0.0 0.00 0.00 0.00 100 1018.6
20260902120535 22 0.0 0.0 0.00 0.00 0.00 100 1018.5
20260902115517 22 0.0 0.0 0.00 0.00 0.00 100 1018.5
20260902114515 22 0.0 0.0 0.00 0.00 0.00 100 1018.5
20260902113515 22 0.0 0.0 0.00 0.00 0.00 100 1018.5